Location: Newark
(35.8833°N, 14.5000°E)
Time: 19:39:48
(UTC+00:00)

UNISAT 6 - Pass Details

Date: 27 May 2019
Orbit: 606 x 690 km, 97.8° (Epoch: 16 June)

Event Time Altitude Azimuth Distance (km) Brightness Sun altitude
Rises 20:08:27 0° 9° (N) 2,903 ? -20.0°
Reaches altitude 10° 20:10:40 10° 7° (N) 1,984 ? -20.3°
Maximum altitude 20:14:56 70° 285° (WNW) 652 ? -20.8°
Enters shadow 20:17:02 29° 207° (SSW) 1,121 ? -21.1°
